Weather History for Greensboro, NC

Change the Weather History Date:

Wednesday, July 25, 2012

  Actual Average Record
Temperature  
Mean Temperature 80 °F 78 °F  
Max Temperature 88 °F 88 °F 101 °F (1914)
Min Temperature 72 °F 69 °F 56 °F (1947)
Degree Days  
Heating Degree Days 0 0  
Month to date heating degree days 0 0  
Since 1 June heating degree days 4 6  
Since 1 July heating degree days 0 0  
Cooling Degree Days 15 14  
Month to date cooling degree days 411 344  
Year to date cooling degree days 956 810  
Since 1 June cooling degree days 694 651  
Growing Degree Days 30 (Base 50)    
Moisture  
Dew Point 68 °F    
Average Humidity 66    
Maximum Humidity 85    
Minimum Humidity 46    
Precipitation  
Precipitation T in 0.15 in 2.79 in (1926)
Month to date precipitation 4.31 3.54  
Year to date precipitation 20.00 23.97  
Sea Level Pressure  
Sea Level Pressure 29.92 in    
Wind  
Wind Speed 5 mph (WSW)    
Max Wind Speed 13 mph    
Max Gust Speed 15 mph    
Visibility 10 miles    
Events Rain    
T = Trace of Precipitation, MM = Missing Value Source: NWS Daily Summary

Daily Weather History Graph

Daily Weather History Graph

Search for Another Location

Airport:

Trip Planner

Search our weather history database for the weather conditions in past years. The results will help you decide how hot, cold, wet, or windy it might be!

Date:

Astronomy

Jul. 25, 2012 Rise Set
Actual Time 6:21 AM EDT 8:30 PM EDT
Civil Twilight 5:53 AM EDT 8:59 PM EDT
Nautical Twilight 5:17 AM EDT 9:34 PM EDT
Astronomical Twilight 4:39 AM EDT 10:12 PM EDT
Moon 1:09 PM EDT (7/25) No Moon Set
Length of Visible Light 15h 05m
Length of Day
14h 08m
Waxing Crescent, 42% of the Moon is Illuminated
Jul 25
Waxing Crescent
Jul 26
First Quarter
Aug 1
Full
Aug 9
Last Quarter
Aug 17
New

Hourly Weather History & Observations

Time (EDT) Temp. Heat Index Dew Point Humidity Pressure Visibility Wind Dir Wind Speed Gust Speed Precip Events Conditions
12:54 AM 73.0 °F - 64.9 °F 76% 29.90 in 10.0 mi West 4.6 mph - N/A   Clear
1:54 AM 73.0 °F - 64.9 °F 76% 29.89 in 10.0 mi West 5.8 mph - N/A   Clear
2:54 AM 75.0 °F - 66.0 °F 73% 29.90 in 10.0 mi WNW 6.9 mph - N/A   Mostly Cloudy
3:54 AM 73.0 °F - 66.0 °F 79% 29.90 in 10.0 mi West 6.9 mph - N/A   Scattered Clouds
4:54 AM 73.9 °F - 66.0 °F 76% 29.91 in 10.0 mi Calm Calm - N/A   Mostly Cloudy
5:54 AM 73.9 °F - 66.9 °F 79% 29.93 in 10.0 mi North 3.5 mph - 0.00 in Rain Light Rain
6:54 AM 72.0 °F - 66.9 °F 84% 29.94 in 10.0 mi WNW 6.9 mph - 0.00 in   Scattered Clouds
7:54 AM 73.0 °F - 68.0 °F 84% 29.95 in 10.0 mi NW 6.9 mph - N/A   Mostly Cloudy
8:54 AM 75.9 °F - 69.1 °F 79% 29.97 in 10.0 mi Variable 3.5 mph - N/A   Clear
9:54 AM 79.0 °F - 68.0 °F 69% 29.96 in 10.0 mi NW 3.5 mph - N/A   Clear
10:54 AM 82.0 °F 84.9 °F 68.0 °F 62% 29.96 in 10.0 mi Calm Calm - N/A   Partly Cloudy
11:54 AM 84.0 °F 86.3 °F 66.0 °F 55% 29.95 in 10.0 mi Variable 5.8 mph - N/A   Scattered Clouds
12:54 PM 86.0 °F 88.8 °F 66.9 °F 53% 29.94 in 10.0 mi Variable 4.6 mph - N/A   Partly Cloudy
1:54 PM 87.1 °F 89.2 °F 66.0 °F 49% 29.93 in 10.0 mi East 4.6 mph - N/A   Partly Cloudy
2:54 PM 87.1 °F 88.9 °F 64.9 °F 48% 29.93 in 10.0 mi NNE 3.5 mph - N/A   Partly Cloudy
3:54 PM 86.0 °F 88.8 °F 66.9 °F 53% 29.91 in 10.0 mi South 4.6 mph - N/A   Mostly Cloudy
4:54 PM 86.0 °F 90.1 °F 69.1 °F 57% 29.90 in 10.0 mi South 6.9 mph - N/A   Mostly Cloudy
5:54 PM 84.0 °F 88.4 °F 70.0 °F 63% 29.90 in 10.0 mi SSW 8.1 mph - N/A   Scattered Clouds
6:54 PM 84.0 °F 89.0 °F 71.1 °F 65% 29.89 in 10.0 mi SW 6.9 mph - N/A   Partly Cloudy
7:54 PM 82.9 °F 87.5 °F 71.1 °F 67% 29.88 in 10.0 mi SSW 6.9 mph - N/A   Partly Cloudy
8:54 PM 82.0 °F 86.7 °F 72.0 °F 71% 29.90 in 10.0 mi SSW 6.9 mph - N/A   Partly Cloudy
9:54 PM 80.1 °F 83.8 °F 72.0 °F 76% 29.91 in 10.0 mi SSW 5.8 mph - N/A   Clear
10:54 PM 79.0 °F - 73.0 °F 82% 29.91 in 10.0 mi SSW 6.9 mph - N/A   Clear
11:54 PM 79.0 °F - 73.0 °F 82% 29.90 in 10.0 mi WSW 5.8 mph - N/A   Clear